Date,TemperatureHighF,TemperatureAvgF,TemperatureLowF,DewpointHighF,DewpointAvgF,DewpointLowF,HumidityHigh,HumidityAvg,HumidityLow,PressureMaxIn,PressureMinIn,WindSpeedMaxMPH,WindSpeedAvgMPH,GustSpeedMaxMPH,PrecipitationSumIn
2013-2-1,27.0,15.1,5.0,14.0,5.2,-2.0,78,65,52,30.47,30.17,0,0,0,0.00
2013-2-2,34.0,29.8,27.0,28.0,22.4,14.0,100,73,58,30.19,30.05,20,6,24,0.00
2013-2-3,34.0,27.0,21.0,30.0,16.5,-99.9,100,72,50,30.24,29.96,18,4,27,0.00
2013-2-4,45.0,31.9,23.0,32.0,25.8,21.0,92,79,56,29.99,29.82,17,7,23,0.00
2013-2-5,48.0,33.6,23.0,36.0,28.8,21.0,100,84,57,30.15,29.91,20,-15,27,0.00
2013-2-6,54.0,37.1,25.0,34.0,30.0,25.0,100,78,43,30.20,30.01,13,7,0,0.00
2013-2-7,45.0,38.7,32.0,45.0,15.5,-99.9,100,79,74,30.11,29.88,18,8,24,0.00
2013-2-8,32.0,29.8,28.0,32.0,28.4,27.0,100,94,86,30.38,30.11,17,8,23,0.00
2013-2-9,41.0,33.0,28.0,34.0,29.1,27.0,100,85,65,30.34,29.95,16,11,21,0.00
2013-2-10,59.0,44.4,34.0,52.0,31.3,-99.9,100,77,41,29.95,29.49,31,19,41,0.00
2013-2-11,45.0,37.2,28.0,30.0,27.0,25.0,86,66,52,30.16,29.79,30,16,40,0.00
2013-2-12,37.0,31.0,23.0,30.0,26.8,23.0,100,84,64,30.18,29.97,6,1,0,0.00
2013-2-13,46.0,36.2,28.0,32.0,29.5,27.0,100,77,57,29.97,29.82,20,9,25,0.00
2013-2-14,48.0,39.8,34.0,34.0,31.2,27.0,93,72,56,30.10,29.81,21,11,25,0.00
2013-2-15,34.0,28.2,21.0,27.0,19.0,14.0,86,68,43,30.32,30.10,17,11,22,0.00
2013-2-16,34.0,24.4,16.0,23.0,15.8,12.0,92,70,43,30.30,30.16,14,6,18,0.00
2013-2-17,48.0,35.8,27.0,32.0,24.1,19.0,86,65,39,30.16,29.83,16,8,23,0.00
2013-2-18,52.0,44.4,36.0,48.0,38.4,32.0,100,80,65,29.83,29.48,25,18,33,0.00
2013-2-19,28.0,22.7,19.0,16.0,12.9,10.0,73,66,54,30.34,30.12,24,15,32,0.00
2013-2-20,23.0,18.4,12.0,14.0,11.0,9.0,85,72,62,30.42,30.28,12,7,0,0.00
2013-2-21,27.0,22.1,19.0,27.0,19.8,14.0,100,90,73,30.30,29.81,22,13,28,0.00
2013-2-22,30.0,25.9,16.0,30.0,22.8,14.0,100,88,73,30.07,29.77,21,11,25,0.00
2013-2-23,28.0,17.2,7.0,18.0,13.3,5.0,100,86,63,30.06,29.99,10,5,0,0.00
2013-2-24,39.0,23.7,3.0,27.0,17.8,1.0,100,79,55,30.11,30.01,10,4,0,0.00
2013-2-25,39.0,30.0,18.0,32.0,25.8,16.0,100,85,64,30.06,29.69,22,10,29,0.00
2013-2-26,32.0,31.1,30.0,32.0,-72.1,-99.9,100,21,100,29.69,29.55,21,20,29,0.00
2013-2-27,32.0,29.1,27.0,28.0,27.2,25.0,100,90,80,29.94,29.79,23,15,28,0.00
2013-2-28,32.0,28.7,27.0,28.0,26.5,25.0,100,89,80,30.14,29.93,18,12,24,0.00